This is the latest recevied weather packets stored in our database for station/object W3BRL. If no packets are shown the sender has not sent any weather packets the latest 1 day(s).
| Time | Temp. | Humidity | Pressure | Rain* | Wind** | Luminosity | Snow |
|---|---|---|---|---|---|---|---|
| 1778027323 | 20.56° C | 43% | 1006 hPa | 0 mm | 1.34 m/s, 180° | 0 W/m² | - |
| 1778027020 | 20.56° C | 43% | 1006 hPa | 0 mm | 3.58 m/s, 223° | 1 W/m² | - |
| 1778026715 | 20.56° C | 44% | 1006.1 hPa | 0 mm | 2.24 m/s, 198° | 2 W/m² | - |
| 1778026413 | 21.11° C | 44% | 1006.2 hPa | 0 mm | 2.24 m/s, 202° | 3 W/m² | - |
| 1778026110 | 21.11° C | 44% | 1006.1 hPa | 0 mm | 3.58 m/s, 193° | 5 W/m² | - |
| 1778025808 | 21.11° C | 44% | 1005.9 hPa | 0 mm | 3.13 m/s, 184° | 7 W/m² | - |
| 1778025504 | 21.11° C | 44% | 1005.9 hPa | 0 mm | 2.68 m/s, 170° | 8 W/m² | - |
| 1778025202 | 21.11° C | 45% | 1005.9 hPa | 0 mm | 2.68 m/s, 203° | 11 W/m² | - |
| 1778024898 | 21.11° C | 44% | 1005.9 hPa | 0 mm | 2.24 m/s, 195° | 15 W/m² | - |
| 1778024596 | 21.11° C | 44% | 1005.8 hPa | 0 mm | 3.13 m/s, 322° | 18 W/m² | - |
| 1778024293 | 21.11° C | 45% | 1005.9 hPa | 0 mm | 2.68 m/s, 187° | 18 W/m² | - |
| 1778023991 | 21.11° C | 45% | 1005.8 hPa | 0 mm | 2.24 m/s, 188° | 20 W/m² | - |
| 1778023688 | 21.67° C | 45% | 1005.8 hPa | 0 mm | 2.68 m/s, 207° | 23 W/m² | - |
| 1778023385 | 21.67° C | 45% | 1005.9 hPa | 0 mm | 1.34 m/s, 199° | 32 W/m² | - |
| 1778023082 | 21.67° C | 45% | 1005.7 hPa | 0 mm | 4.92 m/s, 194° | 46 W/m² | - |
| 1778022780 | 21.67° C | 45% | 1005.9 hPa | 0 mm | 2.68 m/s, 212° | 48 W/m² | - |
| 1778022478 | 21.67° C | 45% | 1005.9 hPa | 0 mm | 2.24 m/s, 175° | 50 W/m² | - |
| 1778022175 | 21.67° C | 45% | 1005.9 hPa | 0 mm | 0.89 m/s, 183° | 52 W/m² | - |
| 1778021871 | 21.67° C | 45% | 1006.1 hPa | 0 mm | 1.34 m/s, 196° | 47 W/m² | - |
| 1778021569 | 21.67° C | 44% | 1005.9 hPa | 0 mm | 2.24 m/s, 193° | 57 W/m² | - |
| 1778021263 | 21.67° C | 44% | 1005.8 hPa | 0 mm | 3.58 m/s, 199° | 75 W/m² | - |
| 1778020961 | 21.67° C | 44% | 1005.8 hPa | 0 mm | 4.02 m/s, 209° | 71 W/m² | - |
| 1778020659 | 21.67° C | 44% | 1006 hPa | 0 mm | 4.02 m/s, 196° | 85 W/m² | - |
| 1778020355 | 21.67° C | 44% | 1005.9 hPa | 0 mm | 2.24 m/s, 215° | 93 W/m² | - |
| 1778020051 | 22.22° C | 44% | 1005.9 hPa | 0 mm | 5.36 m/s, 229° | 101 W/m² | - |
* Rain latest hour (hover to see other rain measurements)
** Current wind speed in m/s (hover to see current wind gust speed)